Starlink 5291

operational
NORAD ID: 55273 Int'l Des: 2023-010 Owner: SPXS Country: US Constellation: starlink
LEOCIRCULAR

Starlink 5291について

説明を読み込み中...

リアルタイム位置

3D地球を読み込み中...

次回通過

高度履歴

Altitude vs Time

uPlot chart will show altitude changes over time

軌道要素

1 55273U 23010E 26037.20660520 .00000084 00000-0 14864-4 0 9996
2 55273 70.0008 123.7009 0002932 267.2985 92.7838 14.98328040168074
Epoch: Feb 6, 2026 • Age: 5 hours

現在のステータス

高度 585.3 km
速度 7.57 km/s
衛星直下点 68.66°N, 97.43°W
打ち上げ日 Jan 19, 2023
運用期間 3 years
タイプ internet

技術仕様

分類 Payload
質量 305.00 kg
乾燥質量 290.00 kg
総質量 305.00 kg
長さ 0.20 m
直径 2.80 m
スパン 9.00 m
形状 Box + pan
製造者 SPXS
バスタイプ Starlink
フェーズステータス In Orbit
所有者/国 SPXS/US

大規模コンステレーション

Loading constellations...